Theta_e
346 345 346 346 352 351 349 352 344 337 332 334 348 351 351 350 350 350 350 347 348 351 351 351 349 351 348 348 347 347 347 347 348 349 350 347 349 340 341 342 346 345 349
349 347 346 351 352 352 350 350 343 334 341 346 349 351 351 350 351 350 347 346 348 351 351 351 348 351 350 346 348 348 346 344 348 347 348 349 350 347 346 346 347 346 348
348 346 349 350 352 352 352 351 348 349 350 349 351 352 349 351 349 348 349 349 349 351 350 351 350 351 349 347 346 344 348 345 346 347 347 347 347 348 349 346 341 347 348
347 349 351 351 351 352 349 347 347 352 351 351 351 351 351 352 349 351 350 349 348 349 350 351 351 349 347 343 344 344 348 344 346 345 346 345 343 347 349 349 349 348 343
348 349 350 348 349 350 348 348 351 352 351 353 352 352 352 351 351 351 351 351 351 350 348 349 348 345 342 342 343 344 347 348 338 345 346 345 344 344 348 343 343 342 344
348 350 347 349 352 352 351 351 351 352 352 352 352 352 352 351 352 352 351 351 352 351 350 347 343 342 341 342 344 344 346 349 344 343 346 345 345 341 345 346 344 343 345
347 348 349 350 351 352 352 352 352 352 351 351 351 352 352 352 352 352 351 352 352 350 349 345 344 344 344 344 343 343 343 341 345 342 343 344 344 345 346 348 347 344 346
346 345 348 349 351 352 353 352 350 351 350 350 351 352 352 351 348 347 351 352 352 350 345 343 343 343 344 345 345 344 343 346 347 341 343 343 344 347 349 344 346 346 347
346 344 346 347 350 352 353 352 351 351 347 351 351 347 345 345 345 346 345 347 347 346 347 345 344 345 345 344 345 340 343 346 348 342 340 344 344 345 347 341 347 347 347
346 345 346 347 348 348 348 351 349 347 350 350 345 343 342 344 347 345 349 343 344 343 344 345 345 344 346 345 345 340 338 343 347 346 338 346 344 346 346 346 344 347 344
347 345 345 346 348 348 348 348 345 346 347 344 344 344 349 352 353 352 346 345 346 345 345 346 347 346 346 344 344 345 345 342 346 347 343 339 344 349 347 348 343 344 345
348 346 344 344 346 348 346 349 348 347 346 349 351 352 353 353 353 352 349 345 345 345 345 345 346 346 350 350 348 349 348 344 346 347 347 334 341 347 345 347 342 345 344
347 345 344 344 346 346 344 347 347 346 347 349 353 353 352 352 353 352 351 351 352 349 352 351 350 349 348 348 346 343 348 347 346 346 346 337 336 347 348 343 338 345 342
347 346 345 346 347 346 346 346 347 344 345 346 348 351 352 351 353 354 352 351 353 352 350 351 351 350 349 349 347 342 345 347 344 346 344 339 338 346 345 343 343 340 340
348 347 347 348 349 348 348 346 347 345 343 343 347 349 349 351 353 354 351 352 351 352 350 350 349 350 348 348 348 343 339 345 344 344 345 340 339 342 344 344 342 342 345
347 347 348 349 349 349 349 350 350 348 344 345 345 347 349 350 352 353 351 352 351 352 353 351 350 350 349 349 348 346 341 339 347 343 340 345 340 340 341 343 341 339 343
345 345 347 348 349 351 351 351 350 346 344 343 343 346 348 350 353 349 353 352 351 353 350 350 349 348 346 341 340 344 342 343 346 342 344 341 342 336 337 339 341 342 342
345 346 347 347 348 351 351 351 348 345 344 342 343 346 349 351 353 356 354 353 353 353 350 348 348 347 345 339 341 340 339 340 340 344 342 340 337 342 337 337 337 338 339
345 345 347 348 348 350 351 350 349 346 345 342 345 347 350 353 355 356 354 353 356 352 352 352 349 348 345 342 339 338 337 337 338 336 341 343 344 340 341 342 337 338 338
345 346 348 348 348 350 350 351 348 345 344 343 346 349 352 355 357 357 355 354 355 352 351 352 349 349 346 344 336 335 338 338 337 338 342 343 344 342 341 345 345 343 340
347 347 349 349 350 351 350 348 346 344 344 345 349 352 356 357 357 359 355 356 354 352 350 351 350 349 347 344 334 335 338 339 338 339 339 338 339 340 341 342 343 344 345
347 349 351 351 352 353 350 347 344 344 343 346 350 353 356 356 358 357 353 352 355 353 351 351 349 349 346 340 335 336 340 337 338 339 340 339 339 337 337 337 340 342 343
347 349 350 353 355 355 350 349 348 345 347 348 351 353 355 357 356 357 354 349 355 351 350 352 352 350 345 343 340 339 338 339 337 338 342 340 340 337 336 337 340 343 344
346 348 351 354 356 357 353 348 348 344 345 346 350 350 351 354 355 355 355 354 352 353 352 353 352 351 349 341 338 337 342 345 338 341 338 341 340 340 338 336 338 339 336
348 349 351 354 356 357 356 350 350 348 343 347 351 352 354 353 356 354 355 354 356 356 354 356 353 353 348 343 335 338 339 339 340 339 342 340 340 339 340 337 337 336 336
348 350 351 355 357 357 357 355 353 351 348 350 353 354 354 354 353 356 355 356 357 357 356 357 355 353 350 347 336 337 337 337 338 339 339 340 340 340 339 339 338 336 337
Wind_Speed
24 20 18 18 18 20 20 22 22 22 21 18 15 14 13 13 12 13 13 12 11 11 10 11 10 9 9 9 10 10 9 9 9 9 9 10 10 9 9 13 11 9 11
21 20 20 19 20 21 22 22 22 22 20 17 15 14 13 12 12 13 12 12 11 12 11 11 10 9 9 10 11 10 9 8 8 8 9 10 9 8 9 10 7 11 10
22 24 20 22 21 22 22 22 22 20 18 15 15 14 13 12 13 11 11 11 11 11 11 10 9 8 8 9 8 8 9 7 8 7 9 10 7 8 8 8 9 11 11
23 21 21 23 22 21 22 22 20 17 16 15 14 14 13 12 11 11 11 11 10 9 9 9 8 7 7 7 6 6 7 8 7 7 3 9 9 7 9 10 10 10 10
22 19 22 23 23 21 20 19 17 16 15 14 13 13 12 12 11 11 11 9 8 8 8 8 7 6 6 6 5 5 5 6 8 6 6 8 10 7 8 9 8 10 9
22 23 22 22 21 19 18 17 16 15 14 13 12 11 11 10 10 10 10 9 8 8 7 7 7 7 6 5 4 4 3 5 8 7 7 6 10 8 9 8 8 8 10
25 23 21 21 20 18 17 16 15 15 14 13 11 10 9 8 9 10 10 9 8 8 9 8 8 8 6 5 5 5 4 5 5 6 6 7 7 9 11 10 9 9 10
25 25 21 19 18 17 15 15 14 12 12 12 10 9 8 8 8 9 8 8 7 7 8 9 8 8 6 5 5 6 6 7 7 6 6 6 7 9 9 10 9 10 9
25 24 21 18 16 15 14 13 12 11 10 9 9 8 8 8 8 7 7 7 6 6 5 6 7 6 6 6 6 7 7 9 7 6 6 7 6 7 8 9 10 10 10
25 23 21 18 16 14 12 11 10 10 9 8 8 7 7 8 8 8 8 6 6 6 5 5 5 5 6 7 6 6 9 9 6 7 6 6 7 7 8 7 8 9 8
24 23 22 20 17 14 12 10 9 9 9 8 7 7 6 5 5 5 5 6 4 5 4 4 5 5 6 7 6 7 7 4 4 5 6 6 9 7 7 7 7 6 7
25 24 22 20 18 15 12 11 10 8 8 7 6 5 4 3 2 2 3 3 3 2 1 1 3 6 3 7 6 6 4 4 5 5 5 8 8 7 7 7 6 6 6
26 24 23 20 18 16 13 11 10 9 8 7 6 4 3 1 1 0 1 3 2 1 2 1 1 3 4 4 5 6 4 4 5 6 5 8 9 7 7 6 6 6 6
25 24 22 20 18 16 13 12 10 10 9 8 7 5 3 2 2 1 1 2 1 2 3 2 3 3 2 3 4 6 4 2 5 5 5 7 8 8 7 6 6 6 6
25 24 22 20 19 17 14 12 11 10 10 9 7 6 4 3 2 1 1 1 1 1 1 2 1 1 1 2 1 3 5 3 3 4 5 6 7 7 6 6 6 7 7
24 24 22 21 20 17 15 13 12 11 10 9 8 7 6 5 3 1 1 1 0 1 3 4 4 1 1 2 1 2 3 2 2 2 5 5 5 6 5 6 6 7 8
25 24 23 22 21 19 17 15 13 12 11 11 10 9 8 7 5 2 0 2 1 1 2 2 2 1 3 1 1 1 2 1 3 3 2 1 6 4 4 4 5 7 7
25 24 23 22 22 20 18 16 15 13 13 12 11 9 9 9 7 5 3 2 1 1 0 1 1 4 1 1 1 1 2 2 2 2 3 2 1 7 4 4 4 4 6
27 25 24 23 22 21 19 17 16 15 14 13 12 11 10 10 10 9 6 3 2 2 1 1 2 3 2 1 3 1 1 3 3 4 4 2 1 2 2 5 5 5 3
27 26 24 24 23 22 19 18 17 17 16 15 14 13 10 11 11 11 10 7 4 1 2 1 2 0 1 2 5 2 3 3 2 3 4 6 5 3 3 4 6 8 5
27 28 27 27 26 24 23 21 20 20 18 17 16 14 11 10 11 11 10 8 7 4 3 2 3 4 1 1 3 5 5 5 4 5 5 4 4 3 2 1 4 5 6
31 31 29 29 27 28 24 24 21 20 19 19 17 15 13 10 10 10 11 9 8 4 4 5 4 2 1 1 1 2 5 7 8 5 1 3 3 4 4 2 2 2 2
33 32 31 29 28 27 25 22 19 18 18 19 19 18 16 14 12 12 11 12 9 6 5 4 5 4 1 1 3 4 3 2 9 8 5 3 4 3 4 5 5 5 4
35 34 33 30 28 26 26 24 25 25 21 22 20 19 18 17 15 14 12 9 12 9 7 5 5 6 4 3 4 5 3 5 4 6 7 6 6 5 3 3 4 5 5
36 35 33 31 30 29 28 29 26 25 25 19 20 17 19 18 18 17 15 13 13 12 10 7 7 7 6 5 6 4 6 6 5 5 4 10 9 8 7 6 4 4 5
35 33 32 32 33 32 31 31 28 26 26 22 20 18 17 17 19 19 18 16 15 14 11 10 10 9 8 6 6 7 7 8 8 8 6 4 6 9 8 7 7 6 5
Wind_Direction
139 150 146 141 132 131 130 132 142 143 146 143 128 119 112 107 103 94 90 86 88 91 97 98 105 101 97 97 97 96 98 101 107 112 116 115 113 103 123 116 103 104 107
138 148 144 138 132 133 134 134 138 139 138 136 127 116 108 101 98 91 88 88 84 91 98 99 104 106 108 101 102 95 89 101 110 118 128 112 115 113 114 115 82 110 115
140 141 140 138 136 135 137 140 138 135 134 130 118 111 106 100 93 92 91 87 83 82 90 99 106 106 106 98 98 87 87 96 115 121 154 120 116 118 115 114 122 120 108
141 143 140 138 137 139 139 139 135 129 128 122 118 113 105 97 93 90 86 83 86 88 93 93 94 97 97 96 89 95 98 98 115 96 144 134 116 120 118 110 111 117 121
142 142 141 137 137 137 137 135 130 127 125 121 116 109 104 99 97 91 85 84 88 88 91 93 97 105 105 96 88 90 108 107 97 86 88 98 113 125 114 108 114 114 117
144 141 143 140 139 136 134 132 129 126 124 120 115 112 105 101 97 86 80 80 87 91 87 89 91 87 89 92 75 76 105 139 99 97 113 111 84 121 121 115 115 127 120
147 145 146 144 142 137 134 136 133 130 126 121 118 116 111 104 92 86 81 79 83 83 87 85 80 87 88 90 100 87 106 140 114 108 113 102 110 125 119 113 108 108 113
149 150 151 151 144 138 141 136 131 131 128 125 124 123 115 108 99 91 86 84 83 81 83 85 82 86 87 82 81 98 113 125 114 109 119 121 126 126 119 124 114 114 114
154 153 156 155 150 146 147 138 136 131 128 129 131 126 119 111 101 92 86 90 88 87 85 82 79 79 79 82 89 80 111 125 110 106 121 124 139 125 123 123 116 113 117
158 159 161 161 159 157 155 150 141 140 141 139 136 132 124 105 95 82 77 73 92 90 81 75 73 74 84 81 83 85 88 100 106 117 121 131 146 129 133 131 130 130 125
165 168 169 168 168 165 162 165 154 158 159 153 133 137 99 124 100 89 109 92 91 92 80 75 82 75 102 90 76 85 91 89 116 113 122 165 136 142 148 143 136 134 129
172 174 175 175 174 171 169 168 169 173 170 174 165 164 136 129 126 114 104 109 105 105 45 34 73 91 106 149 90 62 82 99 118 117 121 171 154 152 152 152 160 151 147
174 178 179 181 182 181 177 175 180 183 184 191 190 178 184 174 135 254 154 150 146 100 222 94 51 60 67 77 79 59 85 102 121 122 137 161 164 164 167 168 167 162 162
178 182 183 185 188 188 183 184 188 190 191 195 196 203 204 210 169 138 97 122 149 61 53 19 72 51 86 100 63 56 79 98 94 124 116 151 158 165 167 175 171 184 180
181 184 186 187 190 191 188 190 197 201 201 205 206 208 210 210 216 256 43 170 54 33 124 65 68 349 81 76 78 67 57 78 90 120 108 143 153 168 190 195 193 189 192
186 188 188 191 193 193 194 193 198 203 208 215 215 214 221 218 220 217 243 186 317 1 18 33 23 59 72 63 79 108 34 49 119 124 109 144 161 168 175 199 200 194 199
191 190 193 194 196 197 199 201 204 207 210 215 219 223 224 224 230 199 241 251 310 356 56 52 17 346 128 65 88 191 319 161 120 167 240 61 148 163 169 166 199 211 214
195 194 197 199 199 200 200 201 206 210 213 217 217 220 228 229 234 247 248 243 287 259 234 251 283 218 83 123 213 311 334 183 145 182 215 243 161 151 150 171 163 176 204
196 197 200 202 202 202 201 202 206 209 213 218 218 218 225 232 233 234 244 252 249 294 153 213 230 27 114 123 201 336 104 157 155 135 111 178 135 185 175 181 196 194 192
198 201 203 204 205 204 204 205 210 213 216 216 217 224 233 240 238 236 243 233 235 170 245 283 288 248 356 352 339 88 111 147 155 120 156 180 145 237 216 227 209 216 202
201 201 203 204 205 202 203 204 208 211 212 214 216 223 237 238 235 230 238 225 231 225 254 223 221 220 222 357 184 142 134 155 162 147 143 89 106 132 102 135 212 212 190
202 204 204 206 206 206 205 207 209 212 214 215 219 224 226 227 223 226 234 234 217 252 216 219 221 242 295 130 344 192 169 156 155 148 145 85 53 119 105 91 122 189 178
202 204 205 206 207 209 209 206 207 215 219 216 220 222 221 220 223 230 238 234 224 230 242 215 225 234 263 214 229 291 176 146 164 176 182 160 159 122 101 95 103 115 125
204 205 207 206 208 210 207 207 206 208 212 219 219 223 224 225 228 232 241 239 230 234 246 243 238 232 222 208 199 225 294 2 225 158 196 195 197 192 168 153 125 120 121
203 204 207 207 209 209 207 210 208 214 217 220 223 223 222 226 228 232 234 228 225 224 226 227 214 216 221 254 218 190 214 224 247 295 187 182 214 217 207 207 184 169 156
204 204 204 205 208 208 207 209 212 213 215 216 217 220 225 226 228 230 228 234 228 224 224 220 213 212 217 223 232 220 214 209 207 219 236 237 245 188 219 219 216 222 208